sat.trackr.live / text

‹ back to catalog

STARLINK-35505

NORAD 66329 · 2025-253L

PAYLOAD ACTIVE UNKNOWN

§ Identity

Operator
Country
US
Launch date
2025-11-06
Launch site
AFETR
Launch vehicle
Mass (kg)
RCS (m²)

Purposes: comms

External: N2YO · Heavens-Above · Gunter

§ Orbital elements

Epoch: 2026-05-25T01:20:15.834048Z

Period
94.27 min
Inclination
42.9984°
Eccentricity
0.0001438
Mean motion
15.27594389 rev/d
Perigee alt
482.0 km
Apogee alt
484.0 km
Semi-major
6,861.1 km
B*
6.5799e-4
RAAN
141.2306°
Arg perigee
242.3613°
Mean anomaly
117.7092°
Rev number
3,192

§ Raw data

STARLINK-355051 66329U 25253L   26145.05573882  .00017896  00000+0  65799-3 0  99982 66329  42.9984 141.2306 0001438 242.3613 117.7092 15.27594389 31923

JSON: /api/v1/satellites/66329 · /tle

For live sub-satellite position, see the globe view (requires WebGL).

§ Visibility from observer

Set your observer location to see the next 7 days of passes ≥ 10°. The values pass through the URL so the page stays shareable.

No JS? Fill the form by hand. The geolocation button needs JavaScript.